Time,TemperatureF,DewpointF,PressureIn,WindDirection,WindDirectionDegrees,WindSpeedMPH,WindSpeedGustMPH,Humidity,HourlyPrecipIn,Conditions,Clouds,dailyrainin,SolarRadiationWatts/m^2,SoftwareType,DateUTC
2013-03-17 00:00:00,58.2,51.4,29.82,NW,315,0.0,0.0,78,0.00,,---,0.00,0.00,VWS V14.01,2013-03-17 04:00:00,
2013-03-17 00:05:00,57.9,51.1,29.82,NW,315,0.0,0.0,78,0.00,,---,0.00,0.00,VWS V14.01,2013-03-17 04:05:00,
2013-03-17 00:10:00,57.6,51.1,29.82,NW,315,0.0,1.0,79,0.00,,---,0.00,0.00,VWS V14.01,2013-03-17 04:10:00,
2013-03-17 00:15:00,57.3,51.2,29.82,NW,315,0.0,1.0,80,0.00,,---,0.00,0.00,VWS V14.01,2013-03-17 04:15:00,
2013-03-17 00:20:00,57.0,50.9,29.82,NW,315,0.0,1.0,80,0.00,,---,0.00,0.00,VWS V14.01,2013-03-17 04:20:00,
2013-03-17 00:25:00,56.7,50.6,29.82,NW,315,0.0,1.0,80,0.00,,---,0.00,0.00,VWS V14.01,2013-03-17 04:25:00,
2013-03-17 00:30:00,56.5,50.8,29.82,NW,315,0.0,0.0,81,0.00,,---,0.00,0.00,VWS V14.01,2013-03-17 04:30:00,
2013-03-17 00:35:00,56.2,50.5,29.82,NW,315,0.0,0.0,81,0.00,,---,0.00,0.00,VWS V14.01,2013-03-17 04:35:00,
2013-03-17 00:40:00,56.0,50.3,29.82,NW,315,0.0,0.0,81,0.00,,---,0.00,0.00,VWS V14.01,2013-03-17 04:40:00,
2013-03-17 00:45:00,55.7,50.3,29.82,NW,315,0.0,0.0,82,0.00,,---,0.00,0.00,VWS V14.01,2013-03-17 04:45:00,
2013-03-17 00:50:00,55.5,50.1,29.82,NW,315,0.0,0.0,82,0.00,,---,0.00,0.00,VWS V14.01,2013-03-17 04:50:00,
2013-03-17 00:55:00,55.3,50.2,29.82,NW,315,0.0,1.0,83,0.00,,---,0.00,0.00,VWS V14.01,2013-03-17 04:55:00,
2013-03-17 01:00:00,55.2,50.5,29.82,NW,315,0.0,0.0,84,0.00,,---,0.00,0.00,VWS V14.01,2013-03-17 05:00:00,
2013-03-17 01:05:00,55.0,50.3,29.82,NW,315,0.0,0.0,84,0.00,,---,0.00,0.00,VWS V14.01,2013-03-17 05:05:00,
2013-03-17 01:10:00,54.9,50.5,29.82,NNW,343,0.0,2.0,85,0.00,,---,0.00,0.00,VWS V14.01,2013-03-17 05:10:00,
2013-03-17 01:15:00,54.8,50.4,29.83,NNW,343,0.0,2.0,85,0.00,,---,0.00,0.00,VWS V14.01,2013-03-17 05:15:00,
2013-03-17 01:20:00,54.7,50.3,29.83,NNW,343,0.0,2.0,85,0.00,,---,0.00,0.00,VWS V14.01,2013-03-17 05:20:00,
2013-03-17 01:25:00,54.6,50.2,29.83,NNW,343,0.0,2.0,85,0.00,,---,0.00,0.00,VWS V14.01,2013-03-17 05:25:00,
2013-03-17 01:30:00,54.6,50.2,29.83,NNW,343,0.0,0.0,85,0.00,,---,0.00,0.00,VWS V14.01,2013-03-17 05:30:00,
2013-03-17 01:35:00,54.6,50.2,29.83,NNW,343,0.0,0.0,85,0.00,,---,0.00,0.00,VWS V14.01,2013-03-17 05:35:00,
2013-03-17 01:40:00,54.6,50.2,29.83,NNW,343,0.0,1.0,85,0.00,,---,0.00,0.00,VWS V14.01,2013-03-17 05:40:00,
2013-03-17 01:45:00,54.6,50.2,29.84,NNW,343,0.0,1.0,85,0.00,,---,0.00,0.00,VWS V14.01,2013-03-17 05:45:00,
2013-03-17 01:50:00,54.5,50.1,29.84,NNW,343,0.0,1.0,85,0.00,,---,0.00,0.00,VWS V14.01,2013-03-17 05:50:00,
2013-03-17 01:55:00,54.5,50.1,29.83,NNW,343,0.0,2.0,85,0.00,,---,0.00,0.00,VWS V14.01,2013-03-17 05:55:00,
2013-03-17 02:00:00,54.6,50.2,29.84,NNW,344,0.0,0.0,85,0.00,,---,0.00,0.00,VWS V14.01,2013-03-17 06:00:00,
2013-03-17 02:05:00,54.7,50.3,29.84,NNW,344,0.0,0.0,85,0.00,,---,0.00,0.00,VWS V14.01,2013-03-17 06:05:00,
2013-03-17 02:10:00,54.6,50.2,29.84,NNW,344,0.0,1.0,85,0.00,,---,0.00,0.00,VWS V14.01,2013-03-17 06:10:00,
2013-03-17 02:15:00,54.6,50.2,29.84,NNW,344,0.0,1.0,85,0.00,,---,0.00,0.00,VWS V14.01,2013-03-17 06:15:00,
2013-03-17 02:20:00,54.7,50.3,29.84,NNW,344,1.0,1.0,85,0.00,,---,0.00,0.00,VWS V14.01,2013-03-17 06:20:00,
2013-03-17 02:25:00,54.8,50.4,29.84,NNW,344,0.0,2.0,85,0.00,,---,0.00,0.00,VWS V14.01,2013-03-17 06:25:00,
2013-03-17 02:30:00,55.0,50.6,29.84,NNW,344,1.0,1.0,85,0.00,,---,0.00,0.00,VWS V14.01,2013-03-17 06:30:00,
2013-03-17 02:35:00,55.1,50.7,29.84,NNW,344,0.0,1.0,85,0.00,,---,0.00,0.00,VWS V14.01,2013-03-17 06:35:00,
2013-03-17 02:40:00,55.2,50.5,29.85,NNW,344,0.0,1.0,84,0.00,,---,0.00,0.00,VWS V14.01,2013-03-17 06:40:00,
2013-03-17 02:45:00,55.2,50.5,29.85,NNW,344,0.0,1.0,84,0.00,,---,0.00,0.00,VWS V14.01,2013-03-17 06:45:00,
2013-03-17 02:50:00,55.2,50.1,29.85,NNW,344,0.0,1.0,83,0.00,,---,0.00,0.00,VWS V14.01,2013-03-17 06:50:00,
2013-03-17 02:55:00,55.0,49.9,29.85,NNW,344,0.0,1.0,83,0.00,,---,0.00,0.00,VWS V14.01,2013-03-17 06:55:00,
2013-03-17 03:00:00,54.8,49.4,29.85,NNW,344,0.0,0.0,82,0.00,,---,0.00,0.00,VWS V14.01,2013-03-17 07:00:00,
2013-03-17 03:05:00,54.6,49.2,29.84,NNW,344,1.0,1.0,82,0.00,,---,0.00,0.00,VWS V14.01,2013-03-17 07:05:00,
2013-03-17 03:10:00,54.2,49.2,29.85,NNW,344,0.0,1.0,83,0.00,,---,0.00,0.00,VWS V14.01,2013-03-17 07:10:00,
2013-03-17 03:15:00,53.8,49.1,29.85,NNW,344,0.0,1.0,84,0.00,,---,0.00,0.00,VWS V14.01,2013-03-17 07:15:00,
2013-03-17 03:20:00,53.6,48.9,29.85,NNW,344,0.0,1.0,84,0.00,,---,0.00,0.00,VWS V14.01,2013-03-17 07:20:00,
2013-03-17 03:25:00,53.3,48.9,29.85,NNW,344,0.0,1.0,85,0.00,,---,0.00,0.00,VWS V14.01,2013-03-17 07:25:00,
2013-03-17 03:30:00,53.2,48.8,29.85,NNW,344,0.0,0.0,85,0.00,,---,0.00,0.00,VWS V14.01,2013-03-17 07:30:00,
2013-03-17 03:35:00,53.0,48.9,29.86,NNW,344,0.0,1.0,86,0.00,,---,0.00,0.00,VWS V14.01,2013-03-17 07:35:00,
2013-03-17 03:40:00,52.8,48.7,29.86,NNW,344,0.0,1.0,86,0.00,,---,0.00,0.00,VWS V14.01,2013-03-17 07:40:00,
2013-03-17 03:45:00,52.6,48.5,29.86,NNW,344,0.0,1.0,86,0.00,,---,0.00,0.00,VWS V14.01,2013-03-17 07:45:00,
2013-03-17 03:50:00,52.4,48.3,29.86,NNW,344,0.0,1.0,86,0.00,,---,0.00,0.00,VWS V14.01,2013-03-17 07:50:00,
2013-03-17 03:55:00,52.3,48.2,29.86,NNW,344,0.0,1.0,86,0.00,,---,0.00,0.00,VWS V14.01,2013-03-17 07:55:00,
2013-03-17 04:00:00,52.1,48.4,29.86,NNW,344,1.0,2.0,87,0.00,,---,0.00,0.00,VWS V14.01,2013-03-17 08:00:00,
2013-03-17 04:05:00,52.0,48.9,29.87,NNW,344,0.0,2.0,89,0.00,,---,0.00,0.00,VWS V14.01,2013-03-17 08:05:00,
2013-03-17 04:10:00,51.9,48.8,29.87,NNW,344,0.0,2.0,89,0.00,,---,0.00,0.00,VWS V14.01,2013-03-17 08:10:00,
2013-03-17 04:15:00,51.8,48.7,29.87,NNW,344,0.0,2.0,89,0.00,,---,0.00,0.00,VWS V14.01,2013-03-17 08:15:00,
2013-03-17 04:20:00,51.8,48.7,29.87,NNW,344,0.0,2.0,89,0.00,,---,0.00,0.00,VWS V14.01,2013-03-17 08:20:00,
2013-03-17 04:25:00,51.7,48.6,29.87,NNW,344,0.0,2.0,89,0.00,,---,0.00,0.00,VWS V14.01,2013-03-17 08:25:00,
2013-03-17 04:30:00,51.6,48.5,29.87,NNW,344,0.0,0.0,89,0.00,,---,0.00,0.00,VWS V14.01,2013-03-17 08:30:00,
2013-03-17 04:35:00,51.5,48.4,29.87,NNW,344,0.0,1.0,89,0.00,,---,0.00,0.00,VWS V14.01,2013-03-17 08:35:00,
2013-03-17 04:40:00,51.4,48.3,29.87,NNW,344,1.0,2.0,89,0.00,,---,0.00,0.00,VWS V14.01,2013-03-17 08:40:00,
2013-03-17 04:45:00,51.4,48.6,29.87,North,360,0.0,2.0,90,0.00,,---,0.00,0.00,VWS V14.01,2013-03-17 08:45:00,
2013-03-17 04:50:00,51.7,49.2,29.88,North,5,0.0,2.0,91,0.00,,---,0.00,0.00,VWS V14.01,2013-03-17 08:50:00,
2013-03-17 04:55:00,51.8,49.3,29.88,North,5,0.0,2.0,91,0.00,,---,0.00,0.00,VWS V14.01,2013-03-17 08:55:00,
2013-03-17 05:00:00,52.0,49.5,29.88,North,10,0.0,0.0,91,0.00,,---,0.00,0.00,VWS V14.01,2013-03-17 09:00:00,
2013-03-17 05:05:00,52.2,49.7,29.88,North,10,1.0,2.0,91,0.00,,---,0.00,0.00,VWS V14.01,2013-03-17 09:05:00,
2013-03-17 05:10:00,52.5,50.0,29.89,North,10,0.0,2.0,91,0.00,,---,0.00,0.00,VWS V14.01,2013-03-17 09:10:00,
2013-03-17 05:15:00,52.7,50.2,29.89,ESE,115,0.0,2.0,91,0.00,,---,0.00,0.00,VWS V14.01,2013-03-17 09:15:00,
2013-03-17 05:20:00,52.8,50.2,29.89,ESE,114,1.0,2.0,91,0.00,,---,0.00,0.00,VWS V14.01,2013-03-17 09:20:00,
2013-03-17 05:25:00,53.1,50.5,29.89,ESE,116,0.0,5.0,91,0.00,,---,0.00,0.00,VWS V14.01,2013-03-17 09:25:00,
2013-03-17 05:30:00,53.3,51.0,29.89,ENE,63,3.0,3.0,92,0.00,,---,0.00,0.00,VWS V14.01,2013-03-17 09:30:00,
2013-03-17 05:35:00,53.6,51.3,29.90,ENE,69,0.0,5.0,92,0.00,,---,0.00,0.00,VWS V14.01,2013-03-17 09:35:00,
2013-03-17 05:40:00,53.7,51.4,29.90,East,86,2.0,5.0,92,0.00,,---,0.00,0.00,VWS V14.01,2013-03-17 09:40:00,
2013-03-17 05:45:00,53.9,51.6,29.91,East,86,2.0,5.0,92,0.00,,---,0.00,0.00,VWS V14.01,2013-03-17 09:45:00,
2013-03-17 05:50:00,53.9,51.6,29.90,East,80,0.0,5.0,92,0.00,,---,0.00,0.00,VWS V14.01,2013-03-17 09:50:00,
2013-03-17 05:55:00,54.0,51.7,29.91,ENE,63,0.0,6.0,92,0.00,,---,0.00,0.00,VWS V14.01,2013-03-17 09:55:00,
2013-03-17 06:00:00,54.0,51.7,29.91,NE,51,0.0,1.0,92,0.00,,---,0.00,0.00,VWS V14.01,2013-03-17 10:00:00,
2013-03-17 06:05:00,54.0,51.7,29.91,East,101,1.0,4.0,92,0.00,,---,0.00,0.00,VWS V14.01,2013-03-17 10:05:00,
2013-03-17 06:10:00,54.0,52.0,29.92,East,101,0.0,4.0,93,0.00,,---,0.00,0.00,VWS V14.01,2013-03-17 10:10:00,
2013-03-17 06:15:00,54.0,52.0,29.92,East,101,0.0,4.0,93,0.00,,---,0.00,0.00,VWS V14.01,2013-03-17 10:15:00,
2013-03-17 06:20:00,54.0,52.0,29.92,East,83,2.0,4.0,93,0.00,,---,0.00,0.00,VWS V14.01,2013-03-17 10:20:00,
2013-03-17 06:25:00,53.9,51.9,29.92,East,89,0.0,4.0,93,0.00,,---,0.00,0.00,VWS V14.01,2013-03-17 10:25:00,
2013-03-17 06:30:00,53.8,51.5,29.93,North,355,0.0,1.0,92,0.00,,---,0.00,0.00,VWS V14.01,2013-03-17 10:30:00,
2013-03-17 06:35:00,53.8,51.5,29.93,East,86,1.0,5.0,92,0.00,,---,0.00,0.00,VWS V14.01,2013-03-17 10:35:00,
2013-03-17 06:40:00,53.7,51.4,29.93,East,86,1.0,5.0,92,0.00,,---,0.00,0.00,VWS V14.01,2013-03-17 10:40:00,
2013-03-17 06:45:00,53.6,51.3,29.94,NE,39,1.0,5.0,92,0.00,,---,0.00,0.00,VWS V14.01,2013-03-17 10:45:00,
2013-03-17 06:50:00,53.5,51.2,29.94,East,85,5.0,5.0,92,0.00,,---,0.00,0.00,VWS V14.01,2013-03-17 10:50:00,
2013-03-17 06:55:00,53.4,50.8,29.94,East,85,1.0,7.0,91,0.00,,---,0.00,0.00,VWS V14.01,2013-03-17 10:55:00,
2013-03-17 07:00:00,53.3,50.7,29.94,ENE,75,2.0,3.0,91,0.00,,---,0.00,0.00,VWS V14.01,2013-03-17 11:00:00,
2013-03-17 07:05:00,53.2,50.7,29.94,East,87,2.0,5.0,91,0.00,,---,0.00,0.00,VWS V14.01,2013-03-17 11:05:00,
2013-03-17 07:10:00,53.1,50.5,29.94,NNE,24,1.0,7.0,91,0.00,,---,0.00,0.00,VWS V14.01,2013-03-17 11:10:00,
2013-03-17 07:15:00,53.0,50.5,29.94,ENE,64,2.0,7.0,91,0.00,,---,0.00,0.00,VWS V14.01,2013-03-17 11:15:00,
2013-03-17 07:20:00,52.9,50.0,29.95,ESE,116,1.0,7.0,90,0.00,,---,0.00,0.00,VWS V14.01,2013-03-17 11:20:00,
2013-03-17 07:25:00,52.8,50.0,29.95,NE,34,0.0,7.0,90,0.00,,---,0.00,0.00,VWS V14.01,2013-03-17 11:25:00,
2013-03-17 07:30:00,52.6,49.5,29.95,North,5,7.0,7.0,89,0.00,,---,0.00,0.00,VWS V14.01,2013-03-17 11:30:00,
2013-03-17 07:35:00,52.4,49.3,29.95,East,99,4.0,7.0,89,0.00,,---,0.00,0.00,VWS V14.01,2013-03-17 11:35:00,
2013-03-17 07:40:00,52.4,49.3,29.96,NE,35,1.0,7.0,89,0.00,,---,0.00,5.00,VWS V14.01,2013-03-17 11:40:00,
2013-03-17 07:45:00,52.2,48.8,29.95,ENE,69,5.0,8.0,88,0.00,,---,0.00,11.00,VWS V14.01,2013-03-17 11:45:00,
2013-03-17 07:50:00,52.1,48.7,29.95,East,95,1.0,8.0,88,0.00,,---,0.00,12.00,VWS V14.01,2013-03-17 11:50:00,
2013-03-17 07:55:00,52.0,48.6,29.95,ENE,73,4.0,8.0,88,0.00,,---,0.00,14.00,VWS V14.01,2013-03-17 11:55:00,
2013-03-17 08:00:00,51.8,47.8,29.94,ENE,69,5.0,8.0,86,0.00,,---,0.00,19.00,VWS V14.01,2013-03-17 12:00:00,
2013-03-17 08:05:00,51.5,47.5,29.94,East,88,2.0,8.0,86,0.00,,---,0.00,25.00,VWS V14.01,2013-03-17 12:05:00,
2013-03-17 08:10:00,51.4,47.0,29.96,North,9,1.0,8.0,85,0.00,,---,0.00,26.00,VWS V14.01,2013-03-17 12:10:00,
2013-03-17 08:14:00,51.3,47.0,29.96,NW,326,0.0,8.0,85,0.00,,---,0.00,19.00,VWS V14.01,2013-03-17 12:14:00,
2013-03-17 08:19:00,51.2,46.8,29.97,ENE,75,7.0,9.0,85,0.00,,---,0.00,21.00,VWS V14.01,2013-03-17 12:19:00,
2013-03-17 08:24:00,51.0,46.7,29.96,NE,56,0.0,9.0,85,0.00,,---,0.00,28.00,VWS V14.01,2013-03-17 12:24:00,
2013-03-17 08:29:00,50.9,46.6,29.96,ENE,74,2.0,2.0,85,0.00,,---,0.00,47.00,VWS V14.01,2013-03-17 12:29:00,
2013-03-17 08:34:00,50.8,46.8,29.97,NNW,332,1.0,10.0,86,0.00,,---,0.00,69.00,VWS V14.01,2013-03-17 12:34:00,
2013-03-17 08:39:00,50.7,46.7,29.97,ENE,69,3.0,10.0,86,0.00,,---,0.00,62.00,VWS V14.01,2013-03-17 12:39:00,
2013-03-17 08:44:00,50.6,46.6,29.97,ENE,74,0.0,10.0,86,0.00,,---,0.00,35.00,VWS V14.01,2013-03-17 12:44:00,
2013-03-17 08:49:00,50.5,46.5,29.98,SE,124,1.0,10.0,86,0.00,,---,0.00,32.00,VWS V14.01,2013-03-17 12:49:00,
2013-03-17 08:54:00,50.5,46.5,29.98,ENE,61,4.0,10.0,86,0.00,,---,0.00,40.00,VWS V14.01,2013-03-17 12:54:00,
2013-03-17 08:59:00,50.4,46.4,29.98,SW,225,4.0,6.0,86,0.00,,---,0.00,63.00,VWS V14.01,2013-03-17 12:59:00,
2013-03-17 09:04:00,50.5,46.5,29.98,East,86,0.0,6.0,86,0.00,,---,0.00,70.00,VWS V14.01,2013-03-17 13:04:00,
2013-03-17 09:09:00,50.6,46.6,29.98,NE,44,1.0,7.0,86,0.00,,---,0.00,77.00,VWS V14.01,2013-03-17 13:09:00,
2013-03-17 09:14:00,50.6,46.6,29.99,East,101,2.0,7.0,86,0.00,,---,0.00,70.00,VWS V14.01,2013-03-17 13:14:00,
2013-03-17 09:19:00,50.6,46.6,29.99,ENE,70,0.0,7.0,86,0.00,,---,0.00,77.00,VWS V14.01,2013-03-17 13:19:00,
2013-03-17 09:24:00,50.6,46.3,29.99,East,98,0.0,7.0,85,0.00,,---,0.00,86.00,VWS V14.01,2013-03-17 13:24:00,
2013-03-17 09:29:00,50.6,46.3,30.00,NNE,21,1.0,2.0,85,0.00,,---,0.00,91.00,VWS V14.01,2013-03-17 13:29:00,
2013-03-17 09:34:00,50.5,46.5,30.00,NE,45,2.0,6.0,86,0.00,,---,0.00,98.00,VWS V14.01,2013-03-17 13:34:00,
2013-03-17 09:39:00,50.5,46.2,30.01,ENE,68,2.0,8.0,85,0.00,,---,0.00,93.00,VWS V14.01,2013-03-17 13:39:00,
2013-03-17 09:44:00,50.5,46.2,30.00,East,93,0.0,8.0,85,0.00,,---,0.00,132.00,VWS V14.01,2013-03-17 13:44:00,
2013-03-17 09:49:00,50.6,46.6,30.01,ESE,113,0.0,8.0,86,0.00,,---,0.00,142.00,VWS V14.01,2013-03-17 13:49:00,
2013-03-17 09:54:00,50.8,46.5,30.02,East,90,0.0,8.0,85,0.00,,---,0.00,139.00,VWS V14.01,2013-03-17 13:54:00,
2013-03-17 09:59:00,50.8,46.5,30.02,ENE,67,2.0,3.0,85,0.00,,---,0.00,186.00,VWS V14.01,2013-03-17 13:59:00,
2013-03-17 10:04:00,51.0,46.3,30.02,East,101,0.0,7.0,84,0.00,,---,0.00,292.00,VWS V14.01,2013-03-17 14:04:00,
2013-03-17 10:09:00,51.2,46.5,30.02,East,82,2.0,7.0,84,0.00,,---,0.00,239.00,VWS V14.01,2013-03-17 14:09:00,
2013-03-17 10:14:00,51.6,46.9,30.02,ENE,73,2.0,7.0,84,0.00,,---,0.00,413.00,VWS V14.01,2013-03-17 14:14:00,
2013-03-17 10:19:00,52.2,47.2,30.02,SE,144,0.0,7.0,83,0.00,,---,0.00,396.00,VWS V14.01,2013-03-17 14:19:00,
2013-03-17 10:24:00,52.7,47.4,30.02,East,88,1.0,7.0,82,0.00,,---,0.00,306.00,VWS V14.01,2013-03-17 14:24:00,
2013-03-17 10:29:00,53.3,47.3,30.02,North,360,5.0,5.0,80,0.00,,---,0.00,341.00,VWS V14.01,2013-03-17 14:29:00,
2013-03-17 10:34:00,53.8,47.1,30.02,East,99,4.0,7.0,78,0.00,,---,0.00,243.00,VWS V14.01,2013-03-17 14:34:00,
2013-03-17 10:39:00,54.0,46.6,30.02,ESE,111,7.0,7.0,76,0.00,,---,0.00,190.00,VWS V14.01,2013-03-17 14:39:00,
2013-03-17 10:44:00,53.7,46.0,30.02,NNW,340,3.0,10.0,75,0.00,,---,0.00,158.00,VWS V14.01,2013-03-17 14:44:00,
2013-03-17 10:49:00,53.7,45.6,30.02,ENE,60,0.0,10.0,74,0.00,,---,0.00,153.00,VWS V14.01,2013-03-17 14:49:00,
2013-03-17 10:54:00,53.5,45.4,30.03,NNE,15,0.0,10.0,74,0.00,,---,0.00,151.00,VWS V14.01,2013-03-17 14:54:00,
2013-03-17 10:59:00,53.4,45.3,30.03,NE,56,1.0,10.0,74,0.00,,---,0.00,165.00,VWS V14.01,2013-03-17 14:59:00,
2013-03-17 11:04:00,53.3,45.2,30.03,NE,36,4.0,6.0,74,0.00,,---,0.00,183.00,VWS V14.01,2013-03-17 15:04:00,
2013-03-17 11:09:00,53.0,45.0,30.03,ENE,63,0.0,9.0,74,0.00,,---,0.00,174.00,VWS V14.01,2013-03-17 15:09:00,
2013-03-17 11:14:00,52.8,44.8,30.04,ESE,105,6.0,9.0,74,0.00,,---,0.00,197.00,VWS V14.01,2013-03-17 15:14:00,
2013-03-17 11:19:00,52.6,44.6,30.04,NNE,19,1.0,9.0,74,0.00,,---,0.00,195.00,VWS V14.01,2013-03-17 15:19:00,
2013-03-17 11:24:00,52.6,44.9,30.04,NE,42,2.0,9.0,75,0.00,,---,0.00,267.00,VWS V14.01,2013-03-17 15:24:00,
2013-03-17 11:29:00,52.6,44.6,30.04,North,11,3.0,4.0,74,0.00,,---,0.00,336.00,VWS V14.01,2013-03-17 15:29:00,
2013-03-17 11:34:00,52.7,44.3,30.04,East,88,0.0,8.0,73,0.00,,---,0.00,413.00,VWS V14.01,2013-03-17 15:34:00,
2013-03-17 11:39:00,53.3,44.5,30.04,NE,41,3.0,8.0,72,0.00,,---,0.00,489.00,VWS V14.01,2013-03-17 15:39:00,
2013-03-17 11:44:00,53.9,44.7,30.04,ENE,70,5.0,10.0,71,0.00,,---,0.00,415.00,VWS V14.01,2013-03-17 15:44:00,
2013-03-17 11:49:00,53.8,44.3,30.05,ENE,78,4.0,10.0,70,0.00,,---,0.00,330.00,VWS V14.01,2013-03-17 15:49:00,
2013-03-17 11:54:00,53.6,44.1,30.05,ENE,66,3.0,10.0,70,0.00,,---,0.00,248.00,VWS V14.01,2013-03-17 15:54:00,
2013-03-17 11:59:00,53.0,43.5,30.05,ENE,78,4.0,10.0,70,0.00,,---,0.00,272.00,VWS V14.01,2013-03-17 15:59:00,
2013-03-17 12:04:00,52.7,43.6,30.05,ENE,76,2.0,7.0,71,0.00,,---,0.00,214.00,VWS V14.01,2013-03-17 16:04:00,
2013-03-17 12:09:00,52.6,43.5,30.05,ESE,103,0.0,7.0,71,0.00,,---,0.00,207.00,VWS V14.01,2013-03-17 16:09:00,
2013-03-17 12:14:00,52.6,43.1,30.05,ENE,59,0.0,8.0,70,0.00,,---,0.00,216.00,VWS V14.01,2013-03-17 16:14:00,
2013-03-17 12:19:00,52.4,42.9,30.05,NNE,32,6.0,8.0,70,0.00,,---,0.00,267.00,VWS V14.01,2013-03-17 16:19:00,
2013-03-17 12:34:00,51.7,42.6,30.05,NE,55,3.0,12.0,71,0.00,,---,0.00,234.00,VWS V14.01,2013-03-17 16:34:00,
2013-03-17 12:39:00,51.6,42.5,30.05,North,10,4.0,12.0,71,0.00,,---,0.00,218.00,VWS V14.01,2013-03-17 16:39:00,
2013-03-17 12:44:00,51.5,42.4,30.05,NE,38,2.0,12.0,71,0.00,,---,0.00,200.00,VWS V14.01,2013-03-17 16:44:00,
2013-03-17 12:49:00,51.4,42.3,30.05,NE,53,5.0,12.0,71,0.00,,---,0.00,183.00,VWS V14.01,2013-03-17 16:49:00,
2013-03-17 12:54:00,51.3,42.6,30.05,SE,130,1.0,12.0,72,0.00,,---,0.00,144.00,VWS V14.01,2013-03-17 16:54:00,
2013-03-17 12:59:00,51.2,42.5,30.06,ENE,71,2.0,12.0,72,0.00,,---,0.00,165.00,VWS V14.01,2013-03-17 16:59:00,
2013-03-17 13:04:00,51.2,42.5,30.06,East,85,4.0,6.0,72,0.00,,---,0.00,130.00,VWS V14.01,2013-03-17 17:04:00,
2013-03-17 13:09:00,50.9,42.2,30.06,NNE,23,6.0,11.0,72,0.00,,---,0.00,165.00,VWS V14.01,2013-03-17 17:09:00,
2013-03-17 13:14:00,50.8,42.1,30.06,ENE,76,0.0,11.0,72,0.00,,---,0.00,216.00,VWS V14.01,2013-03-17 17:14:00,
2013-03-17 13:19:00,50.9,42.6,30.06,ENE,73,2.0,11.0,73,0.00,,---,0.00,232.00,VWS V14.01,2013-03-17 17:19:00,
2013-03-17 13:24:00,51.1,42.4,30.05,NE,36,5.0,11.0,72,0.00,,---,0.00,195.00,VWS V14.01,2013-03-17 17:24:00,
2013-03-17 13:29:00,51.1,42.4,30.05,NNE,21,6.0,11.0,72,0.00,,---,0.00,200.00,VWS V14.01,2013-03-17 17:29:00,
2013-03-17 13:34:00,51.1,42.0,30.05,NNE,30,5.0,8.0,71,0.00,,---,0.00,216.00,VWS V14.01,2013-03-17 17:34:00,
2013-03-17 13:39:00,51.1,42.4,30.05,SE,126,1.0,8.0,72,0.00,,---,0.00,311.00,VWS V14.01,2013-03-17 17:39:00,
2013-03-17 13:44:00,51.4,42.7,30.05,North,355,7.0,8.0,72,0.00,,---,0.00,394.00,VWS V14.01,2013-03-17 17:44:00,
2013-03-17 13:49:00,51.5,42.0,30.05,NNW,344,5.0,9.0,70,0.00,,---,0.00,383.00,VWS V14.01,2013-03-17 17:49:00,
2013-03-17 13:54:00,51.5,42.0,30.05,East,89,5.0,10.0,70,0.00,,---,0.00,371.00,VWS V14.01,2013-03-17 17:54:00,
2013-03-17 13:59:00,51.5,42.0,30.05,East,85,2.0,10.0,70,0.00,,---,0.00,322.00,VWS V14.01,2013-03-17 17:59:00,
2013-03-17 14:04:00,51.6,42.2,30.05,East,94,1.0,8.0,70,0.00,,---,0.00,339.00,VWS V14.01,2013-03-17 18:04:00,
2013-03-17 14:09:00,51.7,42.2,30.05,ENE,61,4.0,8.0,70,0.00,,---,0.00,508.00,VWS V14.01,2013-03-17 18:09:00,
2013-03-17 14:14:00,51.9,42.8,30.05,West,279,2.0,9.0,71,0.00,,---,0.00,473.00,VWS V14.01,2013-03-17 18:14:00,
2013-03-17 14:19:00,51.9,42.1,30.04,East,83,1.0,9.0,69,0.00,,---,0.00,399.00,VWS V14.01,2013-03-17 18:19:00,
2013-03-17 14:24:00,52.0,42.2,30.04,East,100,5.0,9.0,69,0.00,,---,0.00,352.00,VWS V14.01,2013-03-17 18:24:00,
2013-03-17 14:29:00,51.9,42.1,30.04,ESE,108,0.0,9.0,69,0.00,,---,0.00,262.00,VWS V14.01,2013-03-17 18:29:00,
2013-03-17 14:34:00,51.8,42.0,30.04,ESE,104,1.0,6.0,69,0.00,,---,0.00,236.00,VWS V14.01,2013-03-17 18:34:00,
2013-03-17 14:39:00,51.6,41.8,30.04,NNE,13,4.0,6.0,69,0.00,,---,0.00,262.00,VWS V14.01,2013-03-17 18:39:00,
2013-03-17 14:44:00,51.4,41.6,30.03,East,84,5.0,8.0,69,0.00,,---,0.00,225.00,VWS V14.01,2013-03-17 18:44:00,
2013-03-17 14:49:00,51.2,41.8,30.03,NNE,17,4.0,8.0,70,0.00,,---,0.00,234.00,VWS V14.01,2013-03-17 18:49:00,
2013-03-17 14:54:00,51.1,41.7,30.03,East,84,5.0,8.0,70,0.00,,---,0.00,232.00,VWS V14.01,2013-03-17 18:54:00,
2013-03-17 14:59:00,51.1,41.7,30.03,NNE,30,0.0,8.0,70,0.00,,---,0.00,244.00,VWS V14.01,2013-03-17 18:59:00,
2013-03-17 15:04:00,50.9,41.1,30.03,ENE,69,8.0,9.0,69,0.00,,---,0.00,234.00,VWS V14.01,2013-03-17 19:04:00,
2013-03-17 15:09:00,50.5,40.7,30.04,NE,55,2.0,10.0,69,0.00,,---,0.00,178.00,VWS V14.01,2013-03-17 19:09:00,
2013-03-17 15:14:00,50.3,40.9,30.03,NE,44,7.0,10.0,70,0.00,,---,0.00,142.00,VWS V14.01,2013-03-17 19:14:00,
2013-03-17 15:19:00,50.1,40.7,30.03,East,84,5.0,10.0,70,0.00,,---,0.00,171.00,VWS V14.01,2013-03-17 19:19:00,
2013-03-17 15:24:00,49.9,40.9,30.03,East,98,3.0,10.0,71,0.00,,---,0.00,165.00,VWS V14.01,2013-03-17 19:24:00,
2013-03-17 15:29:00,49.5,40.1,30.04,East,85,1.0,1.0,70,0.00,,---,0.00,130.00,VWS V14.01,2013-03-17 19:29:00,
2013-03-17 15:34:00,49.4,40.4,30.04,East,84,1.0,8.0,71,0.00,,---,0.00,146.00,VWS V14.01,2013-03-17 19:34:00,
2013-03-17 15:39:00,49.2,40.2,30.04,ESE,108,2.0,8.0,71,0.00,,---,0.00,151.00,VWS V14.01,2013-03-17 19:39:00,
2013-03-17 15:44:00,49.1,40.1,30.04,East,100,5.0,8.0,71,0.00,,---,0.00,109.00,VWS V14.01,2013-03-17 19:44:00,
2013-03-17 15:49:00,48.8,39.8,30.04,ENE,75,1.0,8.0,71,0.00,,---,0.00,171.00,VWS V14.01,2013-03-17 19:49:00,
2013-03-17 15:54:00,48.8,40.2,30.04,North,5,2.0,8.0,72,0.00,,---,0.00,183.00,VWS V14.01,2013-03-17 19:54:00,
2013-03-17 15:59:00,48.8,40.2,30.03,East,98,0.0,9.0,72,0.00,,---,0.00,230.00,VWS V14.01,2013-03-17 19:59:00,
2013-03-17 16:04:00,49.0,40.4,30.03,East,84,1.0,8.0,72,0.00,,---,0.00,186.00,VWS V14.01,2013-03-17 20:04:00,
2013-03-17 16:09:00,49.0,40.4,30.04,East,94,2.0,8.0,72,0.00,,---,0.00,207.00,VWS V14.01,2013-03-17 20:09:00,
2013-03-17 16:14:00,49.1,40.5,30.04,ESE,109,0.0,8.0,72,0.00,,---,0.00,160.00,VWS V14.01,2013-03-17 20:14:00,
2013-03-17 16:19:00,49.2,40.6,30.04,East,92,2.0,8.0,72,0.00,,---,0.00,155.00,VWS V14.01,2013-03-17 20:19:00,
2013-03-17 16:24:00,49.3,40.3,30.04,East,79,2.0,8.0,71,0.00,,---,0.00,120.00,VWS V14.01,2013-03-17 20:24:00,
2013-03-17 16:29:00,49.0,40.0,30.04,NE,34,1.0,9.0,71,0.00,,---,0.00,84.00,VWS V14.01,2013-03-17 20:29:00,
2013-03-17 16:34:00,48.8,39.8,30.05,NNW,341,2.0,7.0,71,0.00,,---,0.00,84.00,VWS V14.01,2013-03-17 20:34:00,
2013-03-17 16:39:00,48.5,39.9,30.05,ESE,106,1.0,7.0,72,0.00,,---,0.00,97.00,VWS V14.01,2013-03-17 20:39:00,
2013-03-17 16:44:00,48.5,39.9,30.05,North,5,6.0,7.0,72,0.00,,---,0.00,104.00,VWS V14.01,2013-03-17 20:44:00,
2013-03-17 16:49:00,48.3,39.7,30.05,East,96,7.0,8.0,72,0.00,,---,0.00,88.00,VWS V14.01,2013-03-17 20:49:00,
2013-03-17 16:54:00,48.0,39.4,30.06,East,84,6.0,8.0,72,0.00,,---,0.00,76.00,VWS V14.01,2013-03-17 20:54:00,
2013-03-17 16:59:00,47.9,39.7,30.06,ENE,62,2.0,8.0,73,0.00,,---,0.00,86.00,VWS V14.01,2013-03-17 20:59:00,
2013-03-17 17:04:00,47.8,39.6,30.06,NE,39,3.0,5.0,73,0.00,,---,0.00,65.00,VWS V14.01,2013-03-17 21:04:00,
2013-03-17 17:09:00,47.5,39.3,30.06,East,82,5.0,8.0,73,0.00,,---,0.00,60.00,VWS V14.01,2013-03-17 21:09:00,
2013-03-17 17:14:00,47.3,39.1,30.05,East,86,2.0,9.0,73,0.00,,---,0.00,65.00,VWS V14.01,2013-03-17 21:14:00,
2013-03-17 17:19:00,47.1,39.2,30.06,ENE,61,1.0,9.0,74,0.00,,---,0.00,81.00,VWS V14.01,2013-03-17 21:19:00,
2013-03-17 17:24:00,47.0,39.2,30.06,NNE,26,2.0,9.0,74,0.00,,---,0.00,47.00,VWS V14.01,2013-03-17 21:24:00,
2013-03-17 17:29:00,46.9,39.1,30.06,ENE,57,2.0,9.0,74,0.00,,---,0.00,46.00,VWS V14.01,2013-03-17 21:29:00,
2013-03-17 17:34:00,46.7,39.2,30.05,NE,43,4.0,10.0,75,0.00,,---,0.00,58.00,VWS V14.01,2013-03-17 21:34:00,
2013-03-17 17:39:00,46.5,39.0,30.05,East,88,2.0,10.0,75,0.00,,---,0.00,49.00,VWS V14.01,2013-03-17 21:39:00,
2013-03-17 17:44:00,46.5,39.4,30.06,East,89,5.0,10.0,76,0.00,,---,0.00,46.00,VWS V14.01,2013-03-17 21:44:00,
2013-03-17 17:49:00,46.5,39.7,30.06,East,86,1.0,10.0,77,0.00,,---,0.00,44.00,VWS V14.01,2013-03-17 21:49:00,
2013-03-17 17:54:00,46.3,39.5,30.06,East,83,1.0,10.0,77,0.00,,---,0.00,47.00,VWS V14.01,2013-03-17 21:54:00,
2013-03-17 17:59:00,46.2,39.4,30.06,East,82,1.0,10.0,77,0.00,,---,0.00,44.00,VWS V14.01,2013-03-17 21:59:00,
2013-03-17 18:04:00,46.1,39.3,30.06,ENE,76,1.0,7.0,77,0.00,,---,0.00,53.00,VWS V14.01,2013-03-17 22:04:00,
2013-03-17 18:09:00,46.0,39.2,30.06,ESE,110,4.0,7.0,77,0.00,,---,0.00,40.00,VWS V14.01,2013-03-17 22:09:00,
2013-03-17 18:14:00,45.9,39.1,30.06,ENE,65,5.0,7.0,77,0.00,,---,0.00,49.00,VWS V14.01,2013-03-17 22:14:00,
2013-03-17 18:19:00,45.7,38.9,30.07,East,97,2.0,7.0,77,0.00,,---,0.00,40.00,VWS V14.01,2013-03-17 22:19:00,
2013-03-17 18:24:00,45.5,39.0,30.07,ESE,103,1.0,12.0,78,0.00,,---,0.00,33.00,VWS V14.01,2013-03-17 22:24:00,
2013-03-17 18:29:00,45.3,38.9,30.07,North,5,4.0,5.0,78,0.00,,---,0.00,21.00,VWS V14.01,2013-03-17 22:29:00,
2013-03-17 18:34:00,45.2,38.8,30.07,ENE,62,4.0,9.0,78,0.00,,---,0.00,23.00,VWS V14.01,2013-03-17 22:34:00,
2013-03-17 18:39:00,45.0,38.9,30.08,NE,50,2.0,12.0,79,0.00,,---,0.00,18.00,VWS V14.01,2013-03-17 22:39:00,
2013-03-17 18:44:00,44.9,38.8,30.09,East,90,1.0,12.0,79,0.00,,---,0.00,12.00,VWS V14.01,2013-03-17 22:44:00,
2013-03-17 18:49:00,44.8,38.7,30.09,East,85,4.0,12.0,79,0.00,,---,0.00,12.00,VWS V14.01,2013-03-17 22:49:00,
2013-03-17 18:54:00,44.7,38.6,30.09,NE,40,0.0,12.0,79,0.00,,---,0.00,9.00,VWS V14.01,2013-03-17 22:54:00,
2013-03-17 18:59:00,44.7,38.9,30.09,East,86,2.0,12.0,80,0.00,,---,0.00,7.00,VWS V14.01,2013-03-17 22:59:00,
2013-03-17 19:04:00,44.6,38.8,30.10,ENE,63,5.0,10.0,80,0.00,,---,0.00,0.00,VWS V14.01,2013-03-17 23:04:00,
2013-03-17 19:09:00,44.5,38.7,30.10,ENE,67,2.0,10.0,80,0.00,,---,0.00,0.00,VWS V14.01,2013-03-17 23:09:00,
2013-03-17 19:14:00,44.5,38.7,30.10,ENE,73,5.0,10.0,80,0.00,,---,0.00,0.00,VWS V14.01,2013-03-17 23:14:00,
2013-03-17 19:19:00,44.4,38.6,30.10,ENE,75,4.0,10.0,80,0.00,,---,0.00,0.00,VWS V14.01,2013-03-17 23:19:00,
2013-03-17 19:24:00,44.3,38.8,30.10,ENE,78,3.0,10.0,81,0.00,,---,0.00,0.00,VWS V14.01,2013-03-17 23:24:00,
2013-03-17 19:29:00,44.2,38.8,30.10,ENE,61,3.0,10.0,81,0.00,,---,0.00,0.00,VWS V14.01,2013-03-17 23:29:00,
2013-03-17 19:34:00,44.1,38.7,30.10,East,88,2.0,8.0,81,0.00,,---,0.00,0.00,VWS V14.01,2013-03-17 23:34:00,
2013-03-17 19:39:00,44.1,38.7,30.10,East,84,1.0,8.0,81,0.00,,---,0.00,0.00,VWS V14.01,2013-03-17 23:39:00,
2013-03-17 19:44:00,44.1,39.0,30.10,East,83,6.0,8.0,82,0.00,,---,0.00,0.00,VWS V14.01,2013-03-17 23:44:00,
2013-03-17 19:49:00,44.0,38.9,30.09,NE,55,2.0,8.0,82,0.00,,---,0.00,0.00,VWS V14.01,2013-03-17 23:49:00,
2013-03-17 19:54:00,43.8,38.7,30.09,NNW,340,2.0,9.0,82,0.00,,---,0.00,0.00,VWS V14.01,2013-03-17 23:54:00,
2013-03-17 19:59:00,43.8,39.0,30.10,NE,40,1.0,2.0,83,0.00,,---,0.00,0.00,VWS V14.01,2013-03-17 23:59:00,
2013-03-17 20:04:00,43.7,38.9,30.10,East,83,0.0,8.0,83,0.00,,---,0.00,0.00,VWS V14.01,2013-03-18 00:04:00,
2013-03-17 20:09:00,43.7,38.9,30.11,ENE,76,0.0,8.0,83,0.00,,---,0.00,0.00,VWS V14.01,2013-03-18 00:09:00,
2013-03-17 20:14:00,43.6,38.8,30.11,ENE,73,4.0,8.0,83,0.00,,---,0.00,0.00,VWS V14.01,2013-03-18 00:14:00,
2013-03-17 20:19:00,43.6,39.1,30.11,NE,40,2.0,8.0,84,0.00,,---,0.00,0.00,VWS V14.01,2013-03-18 00:19:00,
2013-03-17 20:24:00,43.5,39.0,30.10,East,100,4.0,8.0,84,0.00,,---,0.00,0.00,VWS V14.01,2013-03-18 00:24:00,
2013-03-17 20:29:00,43.4,38.9,30.11,NE,50,6.0,6.0,84,0.00,,---,0.00,0.00,VWS V14.01,2013-03-18 00:29:00,
2013-03-17 20:34:00,43.3,38.8,30.10,NNE,22,2.0,8.0,84,0.00,,---,0.00,0.00,VWS V14.01,2013-03-18 00:34:00,
2013-03-17 20:39:00,43.2,39.0,30.11,West,266,3.0,12.0,85,0.00,,---,0.00,0.00,VWS V14.01,2013-03-18 00:39:00,
2013-03-17 20:44:00,43.1,38.9,30.12,SE,127,1.0,12.0,85,0.00,,---,0.00,0.00,VWS V14.01,2013-03-18 00:44:00,
2013-03-17 20:49:00,43.1,38.9,30.13,East,93,2.0,12.0,85,0.00,,---,0.00,0.00,VWS V14.01,2013-03-18 00:49:00,
2013-03-17 20:54:00,43.1,38.9,30.13,ENE,75,4.0,12.0,85,0.00,,---,0.00,0.00,VWS V14.01,2013-03-18 00:54:00,
2013-03-17 20:59:00,43.0,38.8,30.13,East,88,0.0,12.0,85,0.00,,---,0.00,0.00,VWS V14.01,2013-03-18 00:59:00,
2013-03-17 21:04:00,42.9,38.7,30.13,ESE,111,2.0,5.0,85,0.00,,---,0.00,0.00,VWS V14.01,2013-03-18 01:04:00,
2013-03-17 21:09:00,42.9,38.7,30.13,NE,44,5.0,6.0,85,0.00,,---,0.00,0.00,VWS V14.01,2013-03-18 01:09:00,
2013-03-17 21:14:00,42.8,38.6,30.13,SE,134,12.0,13.0,85,0.00,,---,0.00,0.00,VWS V14.01,2013-03-18 01:14:00,
2013-03-17 21:19:00,42.7,38.5,30.13,ENE,68,4.0,13.0,85,0.00,,---,0.00,0.00,VWS V14.01,2013-03-18 01:19:00,
2013-03-17 21:24:00,42.6,38.4,30.14,SSE,166,4.0,13.0,85,0.00,,---,0.00,0.00,VWS V14.01,2013-03-18 01:24:00,
2013-03-17 21:29:00,42.5,38.3,30.14,East,99,5.0,13.0,85,0.00,,---,0.00,0.00,VWS V14.01,2013-03-18 01:29:00,
2013-03-17 21:34:00,42.5,38.3,30.15,East,88,6.0,8.0,85,0.00,,---,0.00,0.00,VWS V14.01,2013-03-18 01:34:00,
2013-03-17 21:39:00,42.4,38.5,30.16,NE,43,0.0,8.0,86,0.00,,---,0.00,0.00,VWS V14.01,2013-03-18 01:39:00,
2013-03-17 21:44:00,42.4,38.5,30.16,East,94,0.0,8.0,86,0.00,,---,0.00,0.00,VWS V14.01,2013-03-18 01:44:00,
2013-03-17 21:49:00,42.4,38.5,30.16,ENE,71,2.0,8.0,86,0.00,,---,0.00,0.00,VWS V14.01,2013-03-18 01:49:00,
2013-03-17 21:54:00,42.3,38.4,30.17,ENE,70,2.0,8.0,86,0.00,,---,0.00,0.00,VWS V14.01,2013-03-18 01:54:00,
2013-03-17 21:59:00,42.2,38.3,30.16,SE,134,4.0,8.0,86,0.00,,---,0.00,0.00,VWS V14.01,2013-03-18 01:59:00,
2013-03-17 22:04:00,42.2,38.3,30.17,East,92,1.0,5.0,86,0.00,,---,0.00,0.00,VWS V14.01,2013-03-18 02:04:00,
2013-03-17 22:09:00,42.2,38.6,30.17,ESE,117,0.0,7.0,87,0.00,,---,0.00,0.00,VWS V14.01,2013-03-18 02:09:00,
2013-03-17 22:14:00,42.1,38.5,30.17,ENE,76,0.0,7.0,87,0.00,,---,0.00,0.00,VWS V14.01,2013-03-18 02:14:00,
2013-03-17 22:19:00,42.2,38.6,30.17,North,5,3.0,7.0,87,0.00,,---,0.00,0.00,VWS V14.01,2013-03-18 02:19:00,
2013-03-17 22:24:00,42.1,38.5,30.17,ENE,57,2.0,7.0,87,0.00,,---,0.00,0.00,VWS V14.01,2013-03-18 02:24:00,
2013-03-17 22:29:00,42.1,38.5,30.17,North,11,1.0,8.0,87,0.00,,---,0.00,0.00,VWS V14.01,2013-03-18 02:29:00,
2013-03-17 22:34:00,41.9,38.3,30.17,ENE,69,6.0,7.0,87,0.00,,---,0.00,0.00,VWS V14.01,2013-03-18 02:34:00,
2013-03-17 22:39:00,41.8,38.5,30.17,SE,134,1.0,7.0,88,0.00,,---,0.00,0.00,VWS V14.01,2013-03-18 02:39:00,
2013-03-17 22:44:00,41.7,38.4,30.17,East,94,2.0,7.0,88,0.00,,---,0.00,0.00,VWS V14.01,2013-03-18 02:44:00,
2013-03-17 22:49:00,41.5,38.5,30.17,East,95,1.0,7.0,89,0.00,,---,0.00,0.00,VWS V14.01,2013-03-18 02:49:00,
2013-03-17 22:54:00,41.5,38.5,30.17,NNE,28,2.0,7.0,89,0.00,,---,0.00,0.00,VWS V14.01,2013-03-18 02:54:00,
2013-03-17 22:59:00,41.3,38.3,30.17,North,349,0.0,7.0,89,0.00,,---,0.00,0.00,VWS V14.01,2013-03-18 02:59:00,
2013-03-17 23:04:00,41.3,38.6,30.17,ESE,103,2.0,4.0,90,0.00,,---,0.00,0.00,VWS V14.01,2013-03-18 03:04:00,
2013-03-17 23:09:00,41.2,38.5,30.17,NE,50,0.0,5.0,90,0.00,,---,0.00,0.00,VWS V14.01,2013-03-18 03:09:00,
2013-03-17 23:14:00,41.1,38.4,30.17,East,89,2.0,7.0,90,0.00,,---,0.00,0.00,VWS V14.01,2013-03-18 03:14:00,
2013-03-17 23:19:00,41.0,38.3,30.17,East,88,0.0,7.0,90,0.00,,---,0.00,0.00,VWS V14.01,2013-03-18 03:19:00,
2013-03-17 23:24:00,40.8,38.1,30.17,ENE,74,1.0,7.0,90,0.00,,---,0.00,0.00,VWS V14.01,2013-03-18 03:24:00,
2013-03-17 23:29:00,40.7,38.3,30.17,ESE,103,0.0,7.0,91,0.00,,---,0.00,0.00,VWS V14.01,2013-03-18 03:29:00,
2013-03-17 23:34:00,40.6,38.2,30.17,NNE,31,1.0,4.0,91,0.00,,---,0.00,0.00,VWS V14.01,2013-03-18 03:34:00,
2013-03-17 23:39:00,40.6,38.2,30.17,ENE,65,0.0,4.0,91,0.00,,---,0.00,0.00,VWS V14.01,2013-03-18 03:39:00,
2013-03-17 23:44:00,40.5,38.1,30.17,SE,132,3.0,6.0,91,0.00,,---,0.00,0.00,VWS V14.01,2013-03-18 03:44:00,
2013-03-17 23:49:00,40.5,38.1,30.18,ESE,112,1.0,6.0,91,0.00,,---,0.00,0.00,VWS V14.01,2013-03-18 03:49:00,
2013-03-17 23:54:00,40.4,38.0,30.18,East,94,2.0,6.0,91,0.00,,---,0.00,0.00,VWS V14.01,2013-03-18 03:54:00,
2013-03-17 23:59:00,40.4,38.0,30.18,ENE,61,6.0,7.0,91,0.00,,---,0.00,0.00,VWS V14.01,2013-03-18 03:59:00,